Details for Thomas Cook Airlines at EGGD




Go Back


Latest METAR
Local Time

EGGD 180620Z AUTO 21006KT 9999 SCT014 OVC024 15/15 Q1021
18/08/2018, 07:28:05

Description
Results
Thomas Cook Airlines Logo
Number of Pilots based at EGGD
3 Pilots Based here
Number of Thomas Cook Airlines Flights Departed from EGGD
0 Flights Departed
Number of Thomas Cook Airlines Flights Arrived at EGGD
0 Flights Arrived
Number of Thomas Cook Airlines Schedules Departing from EGGD
12 Schedules
Number of Thomas Cook Airlines Schedules Arriving at EGGD
12 Schedules
Number of Thomas Cook Airlines Schedules Departing from EGGD availible today
2 Schedules Today
Number of Thomas Cook Airlines Schedules Arriving at EGGD availible today
2 Schedules Today
Average Landing Rate at EGGD
-225 fpm
Thomas Cook Airlines Average Landing Rate at EGGD
0 fpm
Total Fuel Purchased at EGGD by Thomas Cook Airlines
0.00 kgs / 0.00 lbs

Pilots Based at EGGD


Pilot ID
Pilot Name
Pilot Rank
No. of Flights
No. of Flying Hours
Mark Callison
888
2495.09
Terry Ward
0
0
Justin Fryer
1
2.32
Content